When you browse on this site, cookies collect data to enhance your experience and personalize the content and advertising you see.
Visit our Privacy Policy to learn more. By continuing to use the site, you agree to this use of cookies and data.
  • In Czech Republic
  • List of Countries
  • For 7 days
  • Water Temperature
  • Weather Map
  • Weather Widgets
  • user-avatar
    Login

    Hourly Weather Tukums

    Today, 7 December, Saturday

    Time Temperature Precipitation Wind Pressure Humidity
    00:00 +5°C° 0.1 mm 6 mps 743 mmHg 90%
    01:00 +5°C° 0.1 mm 6 mps 743 mmHg 89%
    02:00 +5°C° 0 mm 6 mps 743 mmHg 88%
    03:00 +4°C° 0 mm 6 mps 743 mmHg 88%
    04:00 +4°C° 0 mm 6 mps 742 mmHg 88%
    05:00 +3°C° 0 mm 6 mps 742 mmHg 88%
    06:00 +3°C° 0 mm 6 mps 741 mmHg 88%
    07:00 +3°C° 0 mm 6 mps 741 mmHg 88%
    08:00 +2°C° 0 mm 6 mps 741 mmHg 86%
    09:00 +2°C° 0 mm 6 mps 741 mmHg 86%
    10:00 +2°C° 0 mm 6 mps 740 mmHg 87%
    11:00 +2°C° 0 mm 6 mps 740 mmHg 87%
    12:00 +3°C° 0.1 mm 6 mps 739 mmHg 87%
    13:00 +3°C° 0.1 mm 6 mps 739 mmHg 88%
    14:00 +3°C° 0.1 mm 6 mps 738 mmHg 88%
    15:00 +4°C° 0.3 mm 6 mps 738 mmHg 88%
    16:00 +4°C° 0.3 mm 6 mps 737 mmHg 89%
    17:00 +4°C° 0.3 mm 6 mps 736 mmHg 89%
    18:00 +4°C° 0.3 mm 6 mps 736 mmHg 87%
    19:00 +4°C° 0.3 mm 6 mps 736 mmHg 84%
    20:00 +4°C° 0.3 mm 7 mps 736 mmHg 82%
    21:00 +4°C° 0.1 mm 7 mps 736 mmHg 79%
    22:00 +3°C° 0.1 mm 7 mps 736 mmHg 76%
    23:00 +3°C° 0.1 mm 7 mps 736 mmHg 73%

    Tomorrow, 8 December, Sunday

    Time Temperature Precipitation Wind Pressure Humidity
    00:00 +2°C° 0.1 mm 7 mps 737 mmHg 77%
    01:00 +1°C° 0.1 mm 8 mps 738 mmHg 80%
    02:00 0°C° 0.1 mm 8 mps 739 mmHg 84%
    03:00 0°C° 0.2 mm 7 mps 739 mmHg 82%
    04:00 +1°C° 0.2 mm 6 mps 740 mmHg 80%
    05:00 +2°C° 0.2 mm 6 mps 740 mmHg 78%
    06:00 +1°C° 0 mm 5 mps 741 mmHg 80%
    07:00 +1°C° 0 mm 5 mps 742 mmHg 82%
    08:00 +1°C° 0 mm 4 mps 742 mmHg 84%
    09:00 +1°C° 0 mm 5 mps 742 mmHg 82%
    10:00 +1°C° 0 mm 5 mps 742 mmHg 79%
    11:00 +1°C° 0 mm 5 mps 742 mmHg 77%
    12:00 +2°C° 0 mm 5 mps 742 mmHg 78%
    13:00 +2°C° 0 mm 5 mps 741 mmHg 78%
    14:00 +2°C° 0 mm 5 mps 741 mmHg 79%
    15:00 +3°C° 0.3 mm 6 mps 740 mmHg 82%
    16:00 +3°C° 0.3 mm 6 mps 739 mmHg 86%
    17:00 +4°C° 0.3 mm 7 mps 738 mmHg 89%
    18:00 +4°C° 0.4 mm 7 mps 737 mmHg 88%
    19:00 +4°C° 0.4 mm 7 mps 737 mmHg 87%
    20:00 +4°C° 0.4 mm 7 mps 736 mmHg 85%
    21:00 +5°C° 0.4 mm 7 mps 736 mmHg 86%
    22:00 +5°C° 0.4 mm 7 mps 735 mmHg 86%
    23:00 +5°C° 0.4 mm 7 mps 735 mmHg 86%

    Day after tomorrow, 9 December, Monday

    Time Temperature Precipitation Wind Pressure Humidity
    00:00 +5°C° 0.1 mm 7 mps 735 mmHg 85%
    01:00 +5°C° 0.1 mm 6 mps 735 mmHg 83%
    02:00 +5°C° 0.1 mm 5 mps 735 mmHg 82%
    03:00 +5°C° 0 mm 5 mps 735 mmHg 82%
    04:00 +5°C° 0 mm 5 mps 735 mmHg 83%
    05:00 +3°C° 0 mm 6 mps 735 mmHg 83%
    06:00 +4°C° 0 mm 6 mps 735 mmHg 81%
    07:00 +4°C° 0 mm 6 mps 736 mmHg 80%
    08:00 +4°C° 0 mm 6 mps 736 mmHg 78%
    09:00 +4°C° 0.2 mm 6 mps 736 mmHg 80%
    10:00 +4°C° 0.2 mm 6 mps 736 mmHg 82%
    11:00 +4°C° 0.2 mm 6 mps 736 mmHg 84%
    12:00 +4°C° 0.2 mm 6 mps 737 mmHg 82%
    13:00 +4°C° 0.2 mm 6 mps 737 mmHg 79%
    14:00 +5°C° 0.2 mm 5 mps 737 mmHg 76%
    15:00 +5°C° 0.1 mm 5 mps 738 mmHg 79%
    16:00 +3°C° 0.1 mm 5 mps 738 mmHg 81%
    17:00 +3°C° 0.1 mm 5 mps 738 mmHg 83%
    18:00 +3°C° 0 mm 5 mps 738 mmHg 83%
    19:00 +3°C° 0 mm 5 mps 739 mmHg 83%
    20:00 +2°C° 0 mm 5 mps 739 mmHg 83%
    21:00 +3°C° 0.1 mm 5 mps 740 mmHg 84%
    22:00 +3°C° 0.1 mm 5 mps 740 mmHg 84%
    23:00 +4°C° 0.1 mm 4 mps 740 mmHg 85%

    10 December, Tuesday

    Time Temperature Precipitation Wind Pressure Humidity
    00:00 +4°C° 0.1 mm 4 mps 740 mmHg 86%
    01:00 +4°C° 0.1 mm 4 mps 741 mmHg 87%
    02:00 +4°C° 0.1 mm 3 mps 741 mmHg 88%
    03:00 +4°C° 0.3 mm 3 mps 741 mmHg 90%
    04:00 +3°C° 0.3 mm 4 mps 741 mmHg 91%
    05:00 +3°C° 0.3 mm 4 mps 741 mmHg 92%
    06:00 +3°C° 0.8 mm 4 mps 742 mmHg 92%
    07:00 +3°C° 0.8 mm 3 mps 743 mmHg 92%
    08:00 +3°C° 0.8 mm 3 mps 744 mmHg 93%
    09:00 +1°C° 0.7 mm 4 mps 745 mmHg 91%
    10:00 0°C° 0.7 mm 5 mps 746 mmHg 90%
    11:00 -1°C° 0.7 mm 6 mps 747 mmHg 89%
    12:00 0°C° 0 mm 5 mps 747 mmHg 81%
    13:00 0°C° 0 mm 5 mps 748 mmHg 73%
    14:00 0°C° 0 mm 5 mps 749 mmHg 65%
    15:00 0°C° 0 mm 5 mps 750 mmHg 66%
    16:00 -1°C° 0 mm 5 mps 751 mmHg 68%
    17:00 -1°C° 0 mm 5 mps 752 mmHg 70%
    18:00 -1°C° 0 mm 5 mps 753 mmHg 68%
    19:00 -1°C° 0 mm 4 mps 754 mmHg 67%
    20:00 -1°C° 0 mm 4 mps 754 mmHg 65%
    21:00 -1°C° 0 mm 4 mps 755 mmHg 66%
    22:00 -1°C° 0 mm 4 mps 755 mmHg 67%
    23:00 -1°C° 0 mm 5 mps 756 mmHg 69%

    11 December, Wednesday

    Time Temperature Precipitation Wind Pressure Humidity
    00:00 -1°C° 0 mm 4 mps 756 mmHg 70%
    01:00 -2°C° 0 mm 4 mps 757 mmHg 72%
    02:00 -1°C° 0 mm 3 mps 757 mmHg 73%
    03:00 -1°C° 0 mm 3 mps 757 mmHg 74%
    04:00 -1°C° 0 mm 3 mps 757 mmHg 74%
    05:00 -1°C° 0 mm 3 mps 758 mmHg 75%
    06:00 -1°C° 0 mm 3 mps 757 mmHg 74%
    07:00 -1°C° 0 mm 3 mps 757 mmHg 73%
    08:00 -1°C° 0 mm 3 mps 757 mmHg 73%
    09:00 -1°C° 0 mm 4 mps 757 mmHg 70%
    10:00 -1°C° 0 mm 5 mps 757 mmHg 67%
    11:00 -2°C° 0 mm 6 mps 757 mmHg 64%
    12:00 -1°C° 0 mm 6 mps 756 mmHg 60%
    13:00 -1°C° 0 mm 6 mps 756 mmHg 56%
    14:00 -1°C° 0 mm 6 mps 756 mmHg 53%
    15:00 -1°C° 0 mm 6 mps 755 mmHg 54%
    16:00 -2°C° 0 mm 6 mps 755 mmHg 56%
    17:00 -2°C° 0 mm 6 mps 755 mmHg 57%
    18:00 -2°C° 0 mm 6 mps 755 mmHg 59%
    19:00 -2°C° 0 mm 6 mps 755 mmHg 60%
    20:00 -2°C° 0 mm 6 mps 754 mmHg 61%
    21:00 -1°C° 0 mm 5 mps 754 mmHg 64%
    22:00 -1°C° 0 mm 5 mps 754 mmHg 66%
    23:00 -1°C° 0 mm 5 mps 754 mmHg 69%

    12 December, Thursday

    Time Temperature Precipitation Wind Pressure Humidity
    00:00 -2°C° 0 mm 5 mps 754 mmHg 72%
    01:00 -2°C° 0 mm 5 mps 754 mmHg 76%
    02:00 -2°C° 0 mm 5 mps 754 mmHg 79%
    03:00 -2°C° 0 mm 5 mps 753 mmHg 81%
    04:00 -2°C° 0 mm 5 mps 753 mmHg 84%
    05:00 -2°C° 0 mm 5 mps 753 mmHg 86%
    06:00 -2°C° 0 mm 5 mps 752 mmHg 85%
    07:00 -2°C° 0 mm 5 mps 752 mmHg 84%
    08:00 -2°C° 0 mm 5 mps 752 mmHg 83%
    09:00 -2°C° 0 mm 5 mps 752 mmHg 83%
    10:00 -2°C° 0 mm 5 mps 752 mmHg 82%
    11:00 -2°C° 0 mm 5 mps 752 mmHg 81%
    12:00 -1°C° 0 mm 5 mps 752 mmHg 80%
    13:00 -1°C° 0 mm 5 mps 752 mmHg 79%
    14:00 -1°C° 0 mm 5 mps 752 mmHg 78%
    15:00 -1°C° 0 mm 5 mps 751 mmHg 80%
    16:00 -1°C° 0 mm 5 mps 751 mmHg 83%
    17:00 -1°C° 0 mm 5 mps 751 mmHg 85%
    18:00 -1°C° 0 mm 5 mps 751 mmHg 86%
    19:00 -1°C° 0 mm 4 mps 751 mmHg 87%
    20:00 -1°C° 0 mm 4 mps 751 mmHg 88%
    21:00 -1°C° 0 mm 4 mps 751 mmHg 87%
    22:00 -1°C° 0 mm 4 mps 751 mmHg 87%
    23:00 -1°C° 0 mm 4 mps 751 mmHg 87%
    Show more